SB KEPS @ AMSAT $ORB07319.O Orbital Elements 07319.OSCAR
HR AMSAT ORBITAL ELEMENTS FOR OSCAR SATELLITES FROM WA5QGD FORT WORTH,TX November 15, 2007 Send Subscribe/unsubscribe to KEPS at http://www.amsat.org/mailman/listinfo/keps BID: ORB07319.O TO ALL RADIO AMATEURS BT
Satellite: AO-07 Catalog number: 07530 Epoch time: 07318.65651635 Element set: 27 Inclination: 101.4972 deg RA of node: 352.1389 deg Eccentricity: 0.0011941 Arg of perigee: 323.4492 deg Mean anomaly: 036.5763 deg Mean motion: 12.53572821 rev/day Decay rate: -2.8e-07 rev/day^2 Epoch rev: 50997 Checksum: 303
Satellite: AO-10 Catalog number: 14129 Epoch time: 07318.13652737 Element set: 442 Inclination: 026.0018 deg RA of node: 246.1245 deg Eccentricity: 0.6050450 Arg of perigee: 072.9878 deg Mean anomaly: 342.1274 deg Mean motion: 02.05869589 rev/day Decay rate: -8.5e-07 rev/day^2 Epoch rev: 18365 Checksum: 306
Satellite: UO-11 Catalog number: 14781 Epoch time: 07319.54162773 Element set: 521 Inclination: 098.1776 deg RA of node: 345.0795 deg Eccentricity: 0.0009919 Arg of perigee: 048.5083 deg Mean anomaly: 311.6955 deg Mean motion: 14.79593869 rev/day Decay rate: 1.01e-06 rev/day^2 Epoch rev: 27211 Checksum: 329
Satellite: RS-15 Catalog number: 23439 Epoch time: 07318.93618839 Element set: 0106 Inclination: 064.8132 deg RA of node: 123.1317 deg Eccentricity: 0.0154642 Arg of perigee: 163.4281 deg Mean anomaly: 197.1776 deg Mean motion: 11.27552978 rev/day Decay rate: -3.9e-07 rev/day^2 Epoch rev: 53069 Checksum: 321
Satellite: FO-29 Catalog number: 24278 Epoch time: 07319.80778585 Element set: 637 Inclination: 098.5730 deg RA of node: 259.2242 deg Eccentricity: 0.0351269 Arg of perigee: 050.6012 deg Mean anomaly: 312.5684 deg Mean motion: 13.52933964 rev/day Decay rate: 3.1e-07 rev/day^2 Epoch rev: 55540 Checksum: 324
Satellite: SO-33 Catalog number: 25509 Epoch time: 07318.55029776 Element set: 0065 Inclination: 031.4316 deg RA of node: 095.5979 deg Eccentricity: 0.0355484 Arg of perigee: 301.7974 deg Mean anomaly: 054.8493 deg Mean motion: 14.28184277 rev/day Decay rate: 1.31e-06 rev/day^2 Epoch rev: 47276 Checksum: 338
Satellite: AO-40 Catalog number: 26609 Epoch time: 07316.43806886 Element set: 0968 Inclination: 006.9517 deg RA of node: 111.5089 deg Eccentricity: 0.7936064 Arg of perigee: 022.4583 deg Mean anomaly: 358.2921 deg Mean motion: 01.25585023 rev/day Decay rate: -3.1e-07 rev/day^2 Epoch rev: 03230 Checksum: 307
Satellite: VO-52 Catalog number: 28650 Epoch time: 07318.73929766 Element set: 778 Inclination: 097.8166 deg RA of node: 025.9627 deg Eccentricity: 0.0028099 Arg of perigee: 121.7480 deg Mean anomaly: 238.6481 deg Mean motion: 14.81379639 rev/day Decay rate: -1.88e-06 rev/day^2 Epoch rev: 13670 Checksum: 365
Satellite: PO-63 Catalog number: 29712 Epoch time: 07319.77552340 Element set: 915 Inclination: 097.9058 deg RA of node: 016.7088 deg Eccentricity: 0.0014263 Arg of perigee: 003.0333 deg Mean anomaly: 357.0954 deg Mean motion: 14.79896038 rev/day Decay rate: 5.71e-06 rev/day^2 Epoch rev: 4575 Checksum: 326
/EX SB KEPS @ AMSAT $ORB07319.D Orbital Elements 07319.MICROS
HR AMSAT ORBITAL ELEMENTS FOR THE MICROSATS FROM WA5QGD FORT WORTH,TX November 15, 2007 Send Subscribe/unsubscribe to KEPS at http://www.amsat.org/mailman/listinfo/keps BID: ORB07319.D TO ALL RADIO AMATEURS BT
Satellite: AO-16 Catalog number: 20439 Epoch time: 07319.59928040 Element set: 180 Inclination: 098.2088 deg RA of node: 305.9133 deg Eccentricity: 0.0011903 Arg of perigee: 094.3453 deg Mean anomaly: 265.9088 deg Mean motion: 14.31775533 rev/day Decay rate: 3.0e-08 rev/day^2 Epoch rev: 93021 Checksum: 299
Satellite: LO-19 Catalog number: 20442 Epoch time: 07318.98357056 Element set: 0104 Inclination: 098.1868 deg RA of node: 314.4290 deg Eccentricity: 0.0012970 Arg of perigee: 095.5218 deg Mean anomaly: 264.7445 deg Mean motion: 14.32014826 rev/day Decay rate: -4.7e-07 rev/day^2 Epoch rev: 93027 Checksum: 308
Satellite: AO-27 Catalog number: 22825 Epoch time: 07319.55672518 Element set: 827 Inclination: 098.3549 deg RA of node: 283.0000 deg Eccentricity: 0.0008544 Arg of perigee: 168.8377 deg Mean anomaly: 191.2998 deg Mean motion: 14.29222911 rev/day Decay rate: 1.17e-06 rev/day^2 Epoch rev: 73711 Checksum: 326
Satellite: IO-26 Catalog number: 22826 Epoch time: 07318.45801676 Element set: 0528 Inclination: 098.3464 deg RA of node: 282.9545 deg Eccentricity: 0.0008829 Arg of perigee: 169.2746 deg Mean anomaly: 190.8626 deg Mean motion: 14.29469340 rev/day Decay rate: -1.8e-07 rev/day^2 Epoch rev: 73704 Checksum: 346
Satellite: PO-28 Catalog number: 22829 Epoch time: 07318.90010849 Element set: 0802 Inclination: 098.3352 deg RA of node: 284.5207 deg Eccentricity: 0.0010176 Arg of perigee: 141.6460 deg Mean anomaly: 218.5440 deg Mean motion: 14.30171649 rev/day Decay rate: -1.4e-07 rev/day^2 Epoch rev: 73735 Checksum: 290
Satellite: GO-32 Catalog number: 25397 Epoch time: 07319.67329005 Element set: 451 Inclination: 098.3941 deg RA of node: 000.1081 deg Eccentricity: 0.0001837 Arg of perigee: 117.8548 deg Mean anomaly: 242.2835 deg Mean motion: 14.23133134 rev/day Decay rate: -1.22e-06 rev/day^2 Epoch rev: 48570 Checksum: 281
Satellite: MO-46 Catalog number: 26548 Epoch time: 07319.42215396 Element set: 948 Inclination: 064.5571 deg RA of node: 074.7790 deg Eccentricity: 0.0003140 Arg of perigee: 350.3801 deg Mean anomaly: 009.7235 deg Mean motion: 14.83194802 rev/day Decay rate: -2.2e-07 rev/day^2 Epoch rev: 38596 Checksum: 311
Satellite: NO-44 Catalog number: 26931 Epoch time: 07319.77392222 Element set: 732 Inclination: 067.0491 deg RA of node: 117.0025 deg Eccentricity: 0.0005510 Arg of perigee: 250.8851 deg Mean anomaly: 109.1608 deg Mean motion: 14.29501612 rev/day Decay rate: -1.57e-06 rev/day^2 Epoch rev: 31976 Checksum: 284
Satellite: SO-50 Catalog number: 27607 Epoch time: 07318.54411406 Element set: 455 Inclination: 064.5597 deg RA of node: 348.5020 deg Eccentricity: 0.0071587 Arg of perigee: 323.1840 deg Mean anomaly: 036.4348 deg Mean motion: 14.71301050 rev/day Decay rate: 4.5e-07 rev/day^2 Epoch rev: 26324 Checksum: 279
Satellite: CO-55 Catalog number: 27844 Epoch time: 07318.69652896 Element set: 166 Inclination: 098.7192 deg RA of node: 324.9499 deg Eccentricity: 0.0010397 Arg of perigee: 021.7968 deg Mean anomaly: 338.3656 deg Mean motion: 14.20542570 rev/day Decay rate: 5.5e-07 rev/day^2 Epoch rev: 22684 Checksum: 354
Satellite: CO-57 Catalog number: 27848 Epoch time: 07318.52516148 Element set: 0123 Inclination: 098.7186 deg RA of node: 323.9280 deg Eccentricity: 0.0010179 Arg of perigee: 025.8054 deg Mean anomaly: 334.3629 deg Mean motion: 14.20357618 rev/day Decay rate: 5.4e-07 rev/day^2 Epoch rev: 22679 Checksum: 319
Satellite: AO-51 Catalog number: 28375 Epoch time: 07318.59581773 Element set: 0960 Inclination: 098.0956 deg RA of node: 350.0388 deg Eccentricity: 0.0084986 Arg of perigee: 086.2428 deg Mean anomaly: 274.8474 deg Mean motion: 14.40586534 rev/day Decay rate: 2.0e-07 rev/day^2 Epoch rev: 17736 Checksum: 352
Satellite: CO-56 Catalog number: 28941 Epoch time: 07318.87731409 Element set: 645 Inclination: 098.1140 deg RA of node: 037.2614 deg Eccentricity: 0.0205297 Arg of perigee: 097.0819 deg Mean anomaly: 265.3817 deg Mean motion: 15.45901648 rev/day Decay rate: 2.3000e-04 rev/day^2 Epoch rev: 9666 Checksum: 328
Satellite: HO-59 Catalog number: 29484 Epoch time: 07319.72848398 Element set: 858 Inclination: 098.2627 deg RA of node: 033.7448 deg Eccentricity: 0.0164614 Arg of perigee: 077.7852 deg Mean anomaly: 284.1523 deg Mean motion: 15.63890350 rev/day Decay rate: 5.3778e-04 rev/day^2 Epoch rev: 6465 Checksum: 376
Satellite: NO-61 Catalog number: 29664 Epoch time: 07319.58314631 Element set: 655 Inclination: 051.6267 deg RA of node: 007.0014 deg Eccentricity: 0.0002588 Arg of perigee: 279.6667 deg Mean anomaly: 080.4076 deg Mean motion: 16.08659920 rev/day Decay rate: 1.37275e-03 rev/day^2 Epoch rev: 5236 Checksum: 325
Satellite: CP4 Catalog number: 31122 Epoch time: 07318.85886031 Element set: 0187 Inclination: 098.0738 deg RA of node: 027.1533 deg Eccentricity: 0.0084646 Arg of perigee: 277.4504 deg Mean anomaly: 081.7026 deg Mean motion: 14.55050688 rev/day Decay rate: 5.48e-06 rev/day^2 Epoch rev: 03076 Checksum: 308
Satellite: CP3 Catalog number: 31128 Epoch time: 07318.83749685 Element set: 0181 Inclination: 098.0677 deg RA of node: 026.0743 deg Eccentricity: 0.0102014 Arg of perigee: 280.7624 deg Mean anomaly: 078.2108 deg Mean motion: 14.51882155 rev/day Decay rate: -4.9e-07 rev/day^2 Epoch rev: 03068 Checksum: 300
Satellite: LIBERT Catalog number: 31129 Epoch time: 07319.65162440 Element set: 519 Inclination: 098.0691 deg RA of node: 026.8777 deg Eccentricity: 0.0101287 Arg of perigee: 278.0369 deg Mean anomaly: 080.9342 deg Mean motion: 14.51975078 rev/day Decay rate: 3.36e-06 rev/day^2 Epoch rev: 3078 Checksum: 315
/EX SB KEPS @ AMSAT $ORB07319.W Orbital Elements 07319.WEATHER
HR AMSAT ORBITAL ELEMENTS FOR WEATHER SATELLITES FROM WA5QGD FORT WORTH,TX November 15, 2007 Send Subscribe/unsubscribe to KEPS at http://www.amsat.org/mailman/listinfo/keps BID: ORB07319.W TO ALL RADIO AMATEURS BT
Satellite: NOAA-10 Catalog number: 16969 Epoch time: 07318.59851902 Element set: 0890 Inclination: 098.7386 deg RA of node: 335.8299 deg Eccentricity: 0.0013182 Arg of perigee: 089.0336 deg Mean anomaly: 271.2355 deg Mean motion: 14.27340345 rev/day Decay rate: -4.2e-07 rev/day^2 Epoch rev: 10068 Checksum: 322
Satellite: NOAA-11 Catalog number: 19531 Epoch time: 07318.76168630 Element set: 0920 Inclination: 098.8090 deg RA of node: 046.0242 deg Eccentricity: 0.0011274 Arg of perigee: 326.0700 deg Mean anomaly: 033.9748 deg Mean motion: 14.14854284 rev/day Decay rate: -2.32e-06 rev/day^2 Epoch rev: 98744 Checksum: 298
